Date String (YYYY-MM-DD hh:mm:ss) UTC,Instrument flags,absolute air pressure of the measurement (hPa),sample flow rate (lpm),inlet stack bypass flow (lpm),air temperature of the measurement (°C),ambient temperature measured by the external sensor (°C),aerosol sample conditioner tube jacket temperature (°C),OPC LED temperature (°C),internal box temperature (°C),relative humidity of the measurement (%),span deviation,mass concentration of particles derived from Lorenz-Mie calculation of OPC scattering (μg/m³),mass concentration of particles derived from Lorenz-Mie calculation of OPC scattering (μg/m³),mass concentration of particles derived from Lorenz-Mie calculation of OPC scattering (μg/m³)
DateTimeUTC,F1_M11,P_M11,Q1_M11,Q2_M11,T1_M11,T2_M11,T3_M11,T4_M11,T5_M11,U1_M11,ZSPAN_M11,X0_M11,X2_M11,X1_M11
2024-01-23 16:00:00,SystemResetWarning,0826.3,5.00,000.00,021.9,021.2,000.0,030.2,023.4,18.5,0002.3,0014.80,0010.26,0009.92
2024-01-23 16:01:00,SystemResetWarning,0826.4,5.00,000.00,021.9,021.2,000.0,030.2,023.3,18.7,0002.5,0014.96,0010.22,0009.89
2024-01-23 16:02:00,SystemResetWarning,0826.3,5.00,000.00,021.9,021.2,000.0,030.2,023.4,18.7,0002.4,0014.49,0010.17,0009.84
2024-01-23 16:03:00,SystemResetWarning,0826.3,5.00,000.00,021.9,021.2,000.0,030.2,023.4,18.5,0002.3,0014.26,0010.15,0009.80
2024-01-23 16:04:00,SystemResetWarning,0826.3,5.01,000.00,021.9,021.2,000.0,030.2,023.4,18.5,0002.1,0014.23,0010.10,0009.76
2024-01-23 16:05:00,SystemResetWarning,0826.3,5.00,000.00,021.9,021.2,000.0,030.2,023.4,18.6,0002.0,0014.30,0010.06,0009.74
2024-01-23 16:06:00,SystemResetWarning,0826.3,4.99,000.00,021.9,021.2,000.0,030.2,023.4,18.5,0001.9,0014.50,0010.12,0009.77
2024-01-23 16:07:00,SystemResetWarning,0826.3,4.99,000.00,021.9,021.2,000.0,030.2,023.4,18.6,0002.0,0014.46,0010.19,0009.84
2024-01-23 16:08:00,SystemResetWarning,0826.3,4.99,000.00,022.0,021.2,000.0,030.2,023.4,18.7,0002.1,0014.18,0010.26,0009.90
2024-01-23 16:09:00,SystemResetWarning,0826.3,5.01,000.00,022.0,021.3,000.0,030.3,023.4,18.6,0002.3,0014.06,0010.30,0009.96
2024-01-23 16:10:00,SystemResetWarning,0826.3,5.01,000.00,022.0,021.3,000.0,030.3,023.5,18.5,0002.4,0014.12,0010.41,0010.05
2024-01-23 16:11:00,SystemResetWarning,0826.3,4.99,000.00,022.0,021.3,000.0,030.3,023.5,18.7,0002.3,0014.18,0010.50,0010.12
2024-01-23 16:12:00,SystemResetWarning,0826.4,4.99,000.00,022.0,021.3,000.0,030.3,023.5,18.7,0002.2,0014.03,0010.61,0010.20
2024-01-23 16:13:00,SystemResetWarning,0826.4,4.99,000.00,022.0,021.3,000.0,030.3,023.5,18.7,0002.2,0014.23,0010.71,0010.28
2024-01-23 16:14:00,SystemResetWarning,0826.4,5.00,000.00,022.0,021.3,000.0,030.3,023.5,18.9,0002.1,0014.29,0010.78,0010.36
2024-01-23 16:15:00,SystemResetWarning,0826.3,5.01,000.00,022.0,021.3,000.0,030.3,023.5,19.0,0002.4,0014.39,0010.88,0010.46
2024-01-23 16:16:00,SystemResetWarning,0826.3,5.00,000.00,022.0,021.3,000.0,030.3,023.5,19.1,0002.4,0014.58,0011.05,0010.59
2024-01-23 16:17:00,SystemResetWarning,0826.3,4.99,000.00,022.0,021.3,000.0,030.3,023.5,18.9,0002.4,0014.44,0011.07,0010.65
2024-01-23 16:18:00,SystemResetWarning,0826.4,4.99,000.00,022.0,021.4,000.0,030.3,023.5,18.7,0002.1,0014.47,0011.05,0010.64
2024-01-23 16:19:00,SystemResetWarning,0826.4,5.00,000.00,022.1,021.4,000.0,030.3,023.5,18.9,0002.0,0014.49,0011.03,0010.62
2024-01-23 16:20:00,SystemResetWarning,0826.4,5.01,000.00,022.1,021.4,000.0,030.3,023.5,18.9,0002.2,0014.57,0011.06,0010.63
2024-01-23 16:21:00,SystemResetWarning,0826.4,5.01,000.00,022.1,021.4,000.0,030.4,023.6,18.9,0002.1,0014.61,0011.04,0010.64
2024-01-23 16:22:00,SystemResetWarning,0826.4,5.00,000.00,022.1,021.4,000.0,030.4,023.6,18.8,0002.1,0014.97,0011.04,0010.63
2024-01-23 16:23:00,SystemResetWarning,0826.4,5.00,000.00,022.1,021.4,000.0,030.4,023.6,18.6,0001.8,0014.90,0010.98,0010.58
2024-01-23 16:24:00,SystemResetWarning,0826.4,5.00,000.00,022.1,021.4,000.0,030.4,023.6,18.6,0001.7,0014.76,0010.90,0010.51
2024-01-23 16:25:00,SystemResetWarning,0826.4,4.99,000.00,022.1,021.4,000.0,030.4,023.6,18.9,0001.7,0014.69,0010.84,0010.45
2024-01-23 16:26:00,SystemResetWarning,0826.4,5.00,000.00,022.1,021.4,000.0,030.4,023.6,18.8,0001.6,0015.10,0010.77,0010.37
2024-01-23 16:27:00,SystemResetWarning,0826.4,5.00,000.00,022.1,021.5,000.0,030.4,023.7,18.5,0001.9,0015.15,0010.67,0010.27
2024-01-23 16:28:00,SystemResetWarning,0826.4,5.00,000.00,022.1,021.5,000.0,030.4,023.7,18.6,0001.9,0015.00,0010.55,0010.15
2024-01-23 16:29:00,SystemResetWarning,0826.4,5.01,000.00,022.2,021.5,000.0,030.4,023.7,18.6,0002.2,0014.81,0010.47,0010.07
2024-01-23 16:30:00,SystemResetWarning,0826.4,5.00,000.00,022.2,021.5,000.0,030.4,023.7,18.8,0002.3,0014.63,0010.37,0009.98
2024-01-23 16:31:00,SystemResetWarning,0826.4,4.99,000.00,022.2,021.5,000.0,030.4,023.7,18.9,0002.1,0014.46,0010.26,0009.90
2024-01-23 16:32:00,SystemResetWarning,0826.4,4.99,000.00,022.2,021.5,000.0,030.4,023.7,18.9,0001.9,0014.67,0010.17,0009.81
2024-01-23 16:33:00,SystemResetWarning,0826.4,5.00,000.00,022.2,021.5,000.0,030.5,023.7,18.9,0002.1,0014.83,0010.11,0009.74
2024-01-23 16:34:00,SystemResetWarning,0826.4,5.01,000.00,022.2,021.5,000.0,030.5,023.7,19.0,0002.3,0014.76,0010.07,0009.69
2024-01-23 16:35:00,SystemResetWarning,0826.4,5.01,000.00,022.2,021.6,000.0,030.5,023.7,18.9,0002.5,0014.83,0010.05,0009.68
2024-01-23 16:36:00,SystemResetWarning,0826.4,5.00,000.00,022.2,021.6,000.0,030.5,023.8,18.6,0002.4,0014.92,0010.04,0009.67
2024-01-23 16:37:00,SystemResetWarning,0826.4,5.00,000.00,022.2,021.6,000.0,030.5,023.8,18.4,0002.2,0014.70,0010.02,0009.64
2024-01-23 16:38:00,SystemResetWarning,0826.4,4.99,000.00,022.3,021.6,000.0,030.5,023.8,18.8,0002.1,0014.49,0010.04,0009.67
2024-01-23 16:39:00,SystemResetWarning,0826.4,5.00,000.00,022.3,021.6,000.0,030.5,023.8,18.8,0002.3,0014.65,0010.07,0009.69
2024-01-23 16:40:00,SystemResetWarning,0826.4,5.01,000.00,022.3,021.6,000.0,030.5,023.8,18.8,0002.1,0014.68,0010.05,0009.67
2024-01-23 16:41:00,SystemResetWarning,0826.4,5.00,000.00,022.3,021.6,000.0,030.5,023.8,18.7,0002.2,0015.16,0010.08,0009.68
2024-01-23 16:42:00,SystemResetWarning,0826.4,5.00,000.00,022.3,021.6,000.0,030.6,023.8,18.6,0002.1,0015.33,0010.10,0009.69
2024-01-23 16:43:00,SystemResetWarning,0826.3,5.01,000.00,022.3,021.7,000.0,030.6,023.8,18.7,0002.5,0015.67,0010.13,0009.70
2024-01-23 16:44:00,SystemResetWarning,0826.5,5.00,000.00,022.3,021.7,000.0,030.6,023.9,18.5,0002.7,0015.19,0010.14,0009.70
2024-01-23 16:45:00,SystemResetWarning,0826.5,5.00,000.00,022.4,021.7,000.0,030.6,023.9,18.4,0002.7,0015.27,0010.17,0009.70
2024-01-23 16:46:00,SystemResetWarning,0826.6,4.99,000.00,022.4,021.7,000.0,030.6,023.9,18.4,0002.4,0015.15,0010.14,0009.67
2024-01-23 16:47:00,SystemResetWarning,0826.5,5.00,000.00,022.4,021.7,000.0,030.6,023.9,18.4,0002.6,0015.04,0010.11,0009.63
2024-01-23 16:48:00,SystemResetWarning,0826.5,4.99,000.00,022.4,021.7,000.0,030.6,023.9,18.4,0002.9,0014.95,0010.11,0009.62
2024-01-23 16:49:00,SystemResetWarning,0826.4,5.00,000.00,022.4,021.7,000.0,030.6,023.9,18.6,0002.7,0014.91,0010.05,0009.58
2024-01-23 16:50:00,SystemResetWarning,0826.4,5.01,000.00,022.4,021.8,000.0,030.6,023.9,18.5,0002.6,0014.79,0010.01,0009.57
2024-01-23 16:51:00,SystemResetWarning,0826.4,5.01,000.00,022.4,021.8,000.0,030.7,024.0,18.4,0002.7,0015.10,0010.07,0009.60
2024-01-23 16:52:00,SystemResetWarning,0826.4,5.00,000.00,022.4,021.8,000.0,030.7,024.0,18.4,0002.6,0014.98,0010.12,0009.63
2024-01-23 16:53:00,SystemResetWarning,0826.4,5.00,000.00,022.5,021.8,000.0,030.7,024.0,18.5,0002.6,0014.96,0010.20,0009.66
2024-01-23 16:54:00,SystemResetWarning,0826.4,5.00,000.00,022.5,021.8,000.0,030.7,024.0,18.4,0002.5,0014.64,0010.27,0009.71
2024-01-23 16:55:00,SystemResetWarning,0826.4,4.99,000.00,022.5,021.8,000.0,030.7,024.0,18.4,0002.4,0015.42,0010.27,0009.74
2024-01-23 16:56:00,SystemResetWarning,0826.4,5.00,000.00,022.5,021.9,000.0,030.7,024.1,18.6,0002.1,0015.62,0010.32,0009.82
2024-01-23 16:57:00,SystemResetWarning,0826.4,4.99,000.00,022.5,021.9,000.0,030.7,024.1,18.5,0002.1,0016.10,0010.40,0009.91
2024-01-23 16:58:00,SystemResetWarning,0826.4,5.00,000.00,022.5,021.9,000.0,030.7,024.1,18.5,0002.3,0016.45,0010.48,0010.00
2024-01-23 16:59:00,SystemResetWarning,0826.4,5.00,000.00,022.6,021.9,000.0,030.8,024.1,18.3,0002.3,0016.46,0010.51,0010.05
